Belize, Belize

7:45 PM CST on February 09, 2016 (GMT -0600)
Belize

Weather History for 78583 - December, 2013

Change the Weather History Date:

Saturday, December 7, 2013

  Actual Average Record
Temperature  
Mean Temperature 80 °F -  
Max Temperature 86 °F - - ()
Min Temperature 75 °F 69 °F - ()
Cooling Degree Days 16    
Growing Degree Days 30 (Base 50)    
Moisture  
Dew Point 75 °F    
Average Humidity 84    
Maximum Humidity 100    
Minimum Humidity 70    
Precipitation  
Precipitation 0.51 in 0.22 in - ()
Sea Level Pressure  
Sea Level Pressure 30.00 in    
Wind  
Wind Speed 6 mph ()    
Max Wind Speed 16 mph    
Max Gust Speed -    
Visibility 5.9 miles    
Events Rain    
T = Trace of Precipitation, MM = Missing Value Source: Averaged Metar Reports

Daily Weather History Graph

Daily Weather History Graph

Search for Another Location

Airport or City:

Trip Planner

Search our weather history database for the weather conditions in past years. The results will help you decide how hot, cold, wet, or windy it might be!

Date:

Astronomy

Dec. 07, 2013 Rise Set
Actual Time 6:11 AM CST 5:18 PM CST
Civil Twilight 5:47 AM CST 5:41 PM CST
Nautical Twilight 5:20 AM CST 6:08 PM CST
Astronomical Twilight 4:54 AM CST 6:35 PM CST
Moon 10:24 AM CST (12/7) 10:26 PM CST (12/7)
Length of Visible Light 11h 54m
Length of Day
11h 07m
Waxing Crescent, 29% of the Moon is Illuminated
Dec 7
Waxing Crescent
Dec 9
First Quarter
Dec 17
Full
Dec 25
Last Quarter
Jan 1
New

Hourly Weather History & Observations

Time (CST) Temp. Heat Index Dew Point Humidity Pressure Visibility Wind Dir Wind Speed Gust Speed Precip Events Conditions
12:00 AM 80 °F - 76 °F 83% 30.01 in 12 mi East 3.5 mph - -   Partly Cloudy
3:00 AM 77 °F - 75 °F 93% 29.98 in 12 mi East 2.3 mph - -   Scattered Clouds
5:00 AM 77.0 °F - 75.2 °F 94% 29.98 in 6.2 mi Calm Calm - N/A   Scattered Clouds
6:00 AM 76 °F - 75 °F 95% 30.01 in 12 mi WNW 2.3 mph - -   Partly Cloudy
6:00 AM 75.2 °F - 75.2 °F 100% 30.01 in 6.2 mi WNW 2.3 mph - N/A   Scattered Clouds
7:00 AM 77.0 °F - 75.2 °F 94% 30.01 in 6.2 mi Calm Calm - N/A   Scattered Clouds
8:00 AM 82.4 °F 90.9 °F 77.0 °F 84% 30.04 in 6.2 mi East 6.9 mph - N/A   Partly Cloudy
9:00 AM 83 °F - 75 °F 70% 30.06 in 5 mi NE 6.9 mph - - Rain Light Rain Showers
9:00 AM 84.2 °F 92.3 °F 75.2 °F 74% 30.05 in 5.0 mi NE 6.9 mph - N/A   Scattered Clouds
10:00 AM 84.2 °F 92.3 °F 75.2 °F 74% 30.06 in 6.2 mi East 9.2 mph - N/A   Scattered Clouds
11:00 AM 84.2 °F 92.3 °F 75.2 °F 74% 30.05 in 6.2 mi ENE 10.4 mph - N/A   Scattered Clouds
11:39 AM 84.2 °F 92.3 °F 75.2 °F 74% 30.04 in 1.2 mi East 12.7 mph - N/A Rain Rain Showers
12:00 PM 79 °F - 75 °F 84% 30.03 in 5 mi East 5.8 mph - - Rain Light Rain Showers
12:00 PM 78.8 °F - 75.2 °F 89% 30.03 in 5.0 mi East 5.8 mph - N/A   Scattered Clouds
12:25 PM 78.8 °F - 75.2 °F 89% 30.01 in 4.3 mi East 9.2 mph - N/A   Scattered Clouds
1:00 PM 82.4 °F 89.5 °F 75.2 °F 79% 30.00 in 6.2 mi ENE 13.8 mph - N/A   Scattered Clouds
2:00 PM 84.2 °F 92.3 °F 75.2 °F 74% 29.98 in 5.6 mi East 6.9 mph - N/A   Scattered Clouds
2:12 PM - - - N/A% 29.99 in 0.1 mi East 16.1 mph - N/A Rain Heavy Rain
2:21 PM 84.2 °F 92.3 °F 75.2 °F 74% 29.98 in 3.1 mi ENE 11.5 mph - N/A Rain Light Rain Showers
2:26 PM 84.2 °F 92.3 °F 75.2 °F 74% 29.98 in 5.0 mi ENE 11.5 mph - N/A Rain Light Rain Showers
2:32 PM 84.2 °F 92.3 °F 75.2 °F 74% 29.97 in 5.6 mi ENE 9.2 mph - N/A Rain Light Rain Showers
3:00 PM 79 °F - 75 °F 85% 29.98 in 6 mi NE 6.9 mph - - Rain Light Rain Showers
3:00 PM 78.8 °F - 75.2 °F 89% 29.97 in 6.2 mi NE 6.9 mph - N/A   Mostly Cloudy
4:00 PM 78.8 °F - 75.2 °F 89% 29.97 in 5.6 mi ENE 2.3 mph - N/A   Mostly Cloudy
4:05 PM 78.8 °F - 75.2 °F 89% 29.98 in 0.9 mi ENE 3.5 mph - N/A Rain Heavy Rain Showers
4:09 PM 78.8 °F - 75.2 °F 89% 29.97 in 1.2 mi ENE 6.9 mph - N/A Rain Heavy Rain Showers
4:12 PM 78.8 °F - 75.2 °F 89% 29.97 in 3.1 mi ENE 9.2 mph - N/A Rain Light Rain Showers
4:16 PM 78.8 °F - 75.2 °F 89% 29.97 in 5.0 mi ENE 10.4 mph - N/A   Mostly Cloudy
5:00 PM 80.6 °F 86.2 °F 75.2 °F 84% 29.97 in 6.2 mi ENE 8.1 mph - N/A   Scattered Clouds
6:00 PM 81 °F - 75 °F 78% 29.99 in 12 mi ENE 10.4 mph - -   Partly Cloudy
6:00 PM 80.6 °F 86.2 °F 75.2 °F 84% 29.99 in 6.2 mi ENE 10.4 mph - N/A   Scattered Clouds
7:00 PM 80.6 °F 86.2 °F 75.2 °F 84% 30.00 in 6.2 mi ENE 8.1 mph - N/A   Partly Cloudy
9:00 PM 80 °F - 75 °F 79% 30.04 in 12 mi East 5.8 mph - -   Scattered Clouds